| time (UTC) | temp C | wind direction | speed KPH | gust KPH | rain 1hr cm | rain 24hr cm | rain mn cm | humidity % | barometer mb |
| 20260903160015 | 30 | 65 | 4.8 | 6.4 | 0.00 | 0.00 | 0.00 | 67 | 1013.2 |
| 20260903154512 | 30 | 65 | 3.2 | 8.0 | 0.00 | 0.00 | 0.00 | 68 | 1013.3 |
| 20260903153012 | 29 | 89 | 1.6 | 6.4 | 0.00 | 0.00 | 0.00 | 69 | 1013.3 |
| 20260903151510 | 30 | 55 | 1.6 | 6.4 | 0.00 | 0.00 | 0.00 | 68 | 1013.4 |
| 20260903150012 | 30 | 122 | 0.0 | 4.8 | 0.00 | 0.00 | 0.00 | 69 | 1013.4 |
| 20260903144515 | 29 | 215 | 0.0 | 3.2 | 0.00 | 0.00 | 0.00 | 69 | 1013.4 |
| 20260903143006 | 28 | 278 | 0.0 | 3.2 | 0.00 | 0.00 | 0.00 | 67 | 1013.4 |
| 20260903141504 | 27 | 260 | 0.0 | 4.8 | 0.00 | 0.00 | 0.00 | 61 | 1013.5 |
| 20260903140111 | 26 | 256 | 0.0 | 4.8 | 0.00 | 0.00 | 0.00 | 59 | 1013.6 |
| 20260903134601 | 26 | 271 | 1.6 | 4.8 | 0.00 | 0.00 | 0.00 | 54 | 1013.6 |
| 20260903133059 | 25 | 243 | 1.6 | 3.2 | 0.00 | 0.00 | 0.00 | 47 | 1013.7 |
| 20260903131610 | 25 | 243 | 0.0 | 1.6 | 0.00 | 0.00 | 0.00 | 42 | 1013.6 |
| 20260903130059 | -17 | 0.0 | 0.0 | 0.00 | 0.00 | 0.00 | 1013.3 | ||
| 20260903124558 | -17 | 0.0 | 0.0 | 0.00 | 0.00 | 0.00 | 1013.3 | ||
| 20260903123104 | -17 | 0.0 | 0.0 | 0.00 | 0.00 | 0.00 | 1013.2 | ||
| 20260903121623 | -17 | 0.0 | 0.0 | 0.00 | 0.00 | 0.00 | 1013.2 | ||
| 20260903120056 | -17 | 0.0 | 0.0 | 0.00 | 0.00 | 0.00 | 1013.1 | ||
| 20260903114556 | -17 | 0.0 | 0.0 | 0.00 | 0.00 | 0.00 | 1013.1 | ||
| 20260903113055 | -17 | 0.0 | 0.0 | 0.00 | 0.00 | 0.00 | 1013.0 | ||
| 20260903111555 | -17 | 0.0 | 0.0 | 0.00 | 0.00 | 0.00 | 1013.0 | ||
| 20260903110051 | -17 | 0.0 | 0.0 | 0.00 | 0.00 | 0.00 | 1013.1 | ||
| 20260903104555 | -17 | 0.0 | 0.0 | 0.00 | 0.00 | 0.00 | 1013.0 | ||
| 20260903103042 | -17 | 0.0 | 0.0 | 0.00 | 0.00 | 0.00 | 1013.0 | ||
| 20260903101547 | -17 | 0.0 | 0.0 | 0.00 | 0.00 | 0.00 | 1012.9 | ||
| 20260903100041 | -17 | 0.0 | 0.0 | 0.00 | 0.00 | 0.00 | 1012.8 | ||
| 20260903094529 | -17 | 0.0 | 0.0 | 0.00 | 0.00 | 0.00 | 1012.9 | ||
| 20260903093030 | -17 | 0.0 | 0.0 | 0.00 | 0.00 | 0.00 | 1012.9 | ||
| 20260903091524 | 25 | 126 | 1.6 | 6.4 | 0.00 | 0.00 | 0.00 | 51 | 1013.0 |
| 20260903090021 | 25 | 122 | 4.8 | 9.7 | 0.00 | 0.00 | 0.00 | 52 | 1013.1 |
| 20260903084519 | 26 | 134 | 4.8 | 8.0 | 0.00 | 0.00 | 0.00 | 54 | 1013.1 |
| 20260903083017 | 26 | 79 | 4.8 | 8.0 | 0.00 | 0.00 | 0.00 | 57 | 1013.2 |
| 20260903081520 | 26 | 105 | 3.2 | 8.0 | 0.00 | 0.00 | 0.00 | 58 | 1013.2 |
| 20260903080013 | 26 | 100 | 6.4 | 9.7 | 0.00 | 0.00 | 0.00 | 60 | 1013.6 |
| 20260903074510 | 26 | 91 | 1.6 | 9.7 | 0.00 | 0.00 | 0.00 | 61 | 1013.8 |
| 20260903073019 | 26 | 65 | 8.0 | 11.3 | 0.00 | 0.00 | 0.00 | 62 | 1013.8 |
| 20260903071507 | 26 | 79 | 8.0 | 12.9 | 0.00 | 0.00 | 0.00 | 63 | 1014.0 |
| 20260903070004 | 26 | 79 | 8.0 | 14.5 | 0.00 | 0.00 | 0.00 | 65 | 1014.1 |
| 20260903064501 | 26 | 68 | 9.7 | 16.1 | 0.00 | 0.00 | 0.00 | 66 | 1014.1 |
| 20260903063058 | 27 | 65 | 8.0 | 16.1 | 0.00 | 0.00 | 0.00 | 67 | 1014.2 |
| 20260903061559 | 27 | 77 | 9.7 | 17.7 | 0.00 | 0.00 | 0.00 | 68 | 1014.0 |
| 20260903054549 | 27 | 105 | 14.5 | 22.5 | 0.00 | 0.00 | 0.00 | 69 | 1014.1 |
| 20260903053047 | 28 | 93 | 14.5 | 27.4 | 0.00 | 0.00 | 0.00 | 69 | 1014.0 |
| 20260903051547 | 28 | 78 | 17.7 | 22.5 | 0.00 | 0.00 | 0.00 | 69 | 1013.7 |
| 20260903050047 | 28 | 51 | 17.7 | 25.7 | 0.00 | 0.00 | 0.00 | 68 | 1013.8 |
| 20260903044545 | 29 | 79 | 11.3 | 25.7 | 0.00 | 0.00 | 0.00 | 66 | 1013.7 |
| 20260903043044 | 29 | 92 | 9.7 | 22.5 | 0.00 | 0.00 | 0.00 | 64 | 1013.5 |
| 20260903041542 | 30 | 55 | 19.3 | 30.6 | 0.00 | 0.00 | 0.00 | 62 | 1013.4 |
| 20260903040040 | 30 | 75 | 14.5 | 32.2 | 0.00 | 0.00 | 0.00 | 60 | 1013.2 |
| 20260903034538 | 31 | 79 | 11.3 | 29.0 | 0.00 | 0.00 | 0.00 | 54 | 1012.9 |
| 20260903033034 | 32 | 109 | 8.0 | 20.9 | 0.00 | 0.00 | 0.00 | 45 | 1012.9 |
| 20260903031539 | 33 | 61 | 16.1 | 25.7 | 0.00 | 0.00 | 0.00 | 40 | 1012.5 |
| 20260903030030 | 33 | 82 | 3.2 | 12.9 | 0.00 | 0.00 | 0.00 | 40 | 1012.2 |
| 20260903024528 | 33 | 78 | 4.8 | 11.3 | 0.00 | 0.00 | 0.00 | 40 | 1012.0 |
| 20260903023031 | 33 | 61 | 9.7 | 17.7 | 0.00 | 0.00 | 0.00 | 39 | 1011.8 |
| 20260903021630 | 33 | 84 | 11.3 | 20.9 | 0.00 | 0.00 | 0.00 | 41 | 1011.6 |
| 20260903020034 | 33 | 94 | 17.7 | 25.7 | 0.00 | 0.00 | 0.00 | 42 | 1011.4 |
| 20260903014526 | 33 | 88 | 14.5 | 20.9 | 0.00 | 0.00 | 0.00 | 42 | 1011.2 |
| 20260903013025 | 33 | 65 | 9.7 | 19.3 | 0.00 | 0.00 | 0.00 | 43 | 1011.0 |
| 20260903011530 | 33 | 64 | 12.9 | 17.7 | 0.00 | 0.00 | 0.00 | 43 | 1011.0 |
| 20260903010030 | 33 | 69 | 9.7 | 19.3 | 0.00 | 0.00 | 0.00 | 43 | 1011.0 |
| 20260903004529 | 34 | 60 | 9.7 | 22.5 | 0.00 | 0.00 | 0.00 | 44 | 1011.0 |
| 20260903003025 | 34 | 60 | 12.9 | 20.9 | 0.00 | 0.00 | 0.00 | 44 | 1010.9 |
| 20260903001523 | 35 | 81 | 9.7 | 19.3 | 0.00 | 0.00 | 0.00 | 43 | 1010.9 |
| 20260903000036 | 35 | 68 | 11.3 | 17.7 | 0.00 | 0.00 | 0.00 | 42 | 1010.9 |
| 20260902234521 | 35 | 62 | 12.9 | 20.9 | 0.00 | 0.00 | 0.00 | 41 | 1010.8 |
| 20260902233029 | 35 | 47 | 14.5 | 20.9 | 0.00 | 0.00 | 0.00 | 41 | 1010.6 |
| 20260902231520 | 35 | 59 | 9.7 | 17.7 | 0.00 | 0.00 | 0.00 | 41 | 1010.7 |
| 20260902230020 | 35 | 90 | 8.0 | 17.7 | 0.00 | 0.00 | 0.00 | 42 | 1010.6 |
| 20260902224518 | 35 | 57 | 11.3 | 19.3 | 0.00 | 0.00 | 0.00 | 42 | 1010.8 |
| 20260902223021 | 35 | 79 | 11.3 | 17.7 | 0.00 | 0.00 | 0.00 | 42 | 1011.0 |
| 20260902221517 | 35 | 77 | 8.0 | 16.1 | 0.00 | 0.00 | 0.00 | 43 | 1011.1 |
| 20260902220024 | 35 | 65 | 8.0 | 19.3 | 0.00 | 0.00 | 0.00 | 43 | 1011.4 |
| 20260902214531 | 34 | 65 | 4.8 | 12.9 | 0.00 | 0.00 | 0.00 | 43 | 1011.5 |
| 20260902213009 | 34 | 65 | 3.2 | 12.9 | 0.00 | 0.00 | 0.00 | 43 | 1011.5 |
| 20260902211509 | 35 | 66 | 9.7 | 17.7 | 0.00 | 0.00 | 0.00 | 42 | 1011.8 |
| 20260902210011 | 35 | 58 | 8.0 | 20.9 | 0.00 | 0.00 | 0.00 | 43 | 1012.0 |
| 20260902204504 | 35 | 60 | 4.8 | 24.1 | 0.00 | 0.00 | 0.00 | 44 | 1012.4 |
| 20260902203104 | 34 | 48 | 8.0 | 16.1 | 0.00 | 0.00 | 0.00 | 44 | 1012.7 |
| 20260902201559 | 35 | 115 | 9.7 | 14.5 | 0.00 | 0.00 | 0.00 | 44 | 1012.7 |
| 20260902200057 | 34 | 164 | 0.0 | 16.1 | 0.00 | 0.00 | 0.00 | 46 | 1012.9 |
| 20260902194556 | 34 | 96 | 11.3 | 19.3 | 0.00 | 0.00 | 0.00 | 44 | 1013.1 |
| 20260902193053 | 33 | 64 | 9.7 | 19.3 | 0.00 | 0.00 | 0.00 | 43 | 1013.3 |
| 20260902191550 | 33 | 100 | 8.0 | 16.1 | 0.00 | 0.00 | 0.00 | 46 | 1013.6 |
| 20260902190047 | 33 | 36 | 6.4 | 20.9 | 0.00 | 0.00 | 0.00 | 47 | 1013.8 |
| 20260902184546 | 33 | 88 | 3.2 | 11.3 | 0.00 | 0.00 | 0.00 | 49 | 1013.9 |
| 20260902183047 | 32 | 73 | 12.9 | 19.3 | 0.00 | 0.00 | 0.00 | 52 | 1014.2 |
| 20260902181542 | 32 | 118 | 11.3 | 19.3 | 0.00 | 0.00 | 0.00 | 54 | 1014.3 |
| 20260902180040 | 32 | 69 | 11.3 | 17.7 | 0.00 | 0.00 | 0.00 | 57 | 1014.7 |
| 20260902174549 | 32 | 94 | 8.0 | 12.9 | 0.00 | 0.00 | 0.00 | 58 | 1014.9 |
| 20260902173104 | 32 | 110 | 0.0 | 11.3 | 0.00 | 0.00 | 0.00 | 61 | 1015.2 |
| 20260902171544 | 32 | 60 | 4.8 | 9.7 | 0.00 | 0.00 | 0.00 | 58 | 1015.3 |
| 20260902170034 | 31 | 29 | 1.6 | 8.0 | 0.00 | 0.00 | 0.00 | 60 | 1015.4 |
| 20260902164533 | 31 | 32 | 1.6 | 6.4 | 0.00 | 0.00 | 0.00 | 63 | 1015.4 |
| 20260902163032 | 30 | 96 | 3.2 | 8.0 | 0.00 | 0.00 | 0.00 | 66 | 1015.5 |
| 20260902161531 | 30 | 54 | 1.6 | 8.0 | 0.00 | 0.00 | 0.00 | 67 | 1015.5 |